TimeCDT,TemperatureF,Dew PointF,Humidity,Sea Level PressureIn,VisibilityMPH,Wind Direction,Wind SpeedMPH,Gust SpeedMPH,PrecipitationIn,Events,Conditions,WindDirDegrees,DateUTC
12:15 AM,35.6,33.8,93,30.02,5.0,NNW,11.5,-,N/A,,Overcast,340,2012-11-01 05:15:00
12:35 AM,35.6,33.8,93,30.02,3.0,NNW,12.7,17.3,N/A,,Overcast,340,2012-11-01 05:35:00
12:55 AM,35.6,33.8,93,30.03,4.0,North,17.3,-,N/A,,Light Drizzle,350,2012-11-01 05:55:00
1:15 AM,35.6,33.8,93,30.03,7.0,NNW,17.3,-,N/A,,Light Drizzle,340,2012-11-01 06:15:00
1:35 AM,33.8,32.0,93,30.04,10.0,NNW,16.1,-,N/A,,Overcast,340,2012-11-01 06:35:00
2:15 AM,33.8,30.2,87,30.04,10.0,NW,12.7,-,N/A,,Overcast,320,2012-11-01 07:15:00
2:35 AM,33.8,30.2,87,30.04,10.0,NNW,16.1,20.7,N/A,,Overcast,340,2012-11-01 07:35:00
2:55 AM,33.8,30.2,87,30.05,10.0,NNW,16.1,-,N/A,,Overcast,340,2012-11-01 07:55:00
3:15 AM,32.0,28.4,87,30.05,7.0,NNW,15.0,-,N/A,Snow,Light Snow,330,2012-11-01 08:15:00
3:35 AM,30.2,30.2,100,30.05,10.0,NNW,15.0,-,N/A,,Overcast,330,2012-11-01 08:35:00
3:55 AM,30.2,28.4,93,30.05,10.0,NNW,16.1,20.7,N/A,,Overcast,340,2012-11-01 08:55:00
4:15 AM,30.2,28.4,93,30.05,10.0,NNW,13.8,-,N/A,,Overcast,330,2012-11-01 09:15:00
4:35 AM,30.2,26.6,86,30.05,10.0,NNW,16.1,23.0,N/A,,Overcast,330,2012-11-01 09:35:00
5:15 AM,30.2,24.8,80,30.07,10.0,NNW,18.4,21.9,N/A,,Overcast,340,2012-11-01 10:15:00
5:35 AM,28.4,24.8,86,30.07,10.0,NNW,17.3,20.7,N/A,,Overcast,330,2012-11-01 10:35:00
5:55 AM,28.4,23.0,80,30.08,10.0,NNW,19.6,26.5,N/A,,Overcast,330,2012-11-01 10:55:00
6:15 AM,28.4,23.0,80,30.08,10.0,NNW,17.3,-,N/A,,Overcast,340,2012-11-01 11:15:00
6:35 AM,28.4,23.0,80,30.08,10.0,North,19.6,26.5,N/A,,Overcast,350,2012-11-01 11:35:00
6:55 AM,28.4,23.0,80,30.09,10.0,NNW,13.8,-,N/A,,Overcast,330,2012-11-01 11:55:00
7:15 AM,28.4,21.2,74,30.09,10.0,NNW,18.4,21.9,N/A,,Overcast,330,2012-11-01 12:15:00
7:35 AM,26.6,21.2,80,30.09,10.0,NNW,15.0,25.3,N/A,,Overcast,330,2012-11-01 12:35:00
8:35 AM,26.6,21.2,80,30.09,10.0,NNW,12.7,-,N/A,,Overcast,340,2012-11-01 13:35:00
9:15 AM,26.6,21.2,80,30.11,10.0,NNW,15.0,23.0,N/A,,Overcast,340,2012-11-01 14:15:00
9:35 AM,26.6,21.2,80,30.11,10.0,North,18.4,-,N/A,,Overcast,360,2012-11-01 14:35:00
9:55 AM,26.6,21.2,80,30.11,10.0,North,17.3,-,N/A,,Overcast,350,2012-11-01 14:55:00
10:15 AM,26.6,21.2,80,30.11,10.0,NNW,16.1,21.9,N/A,,Overcast,340,2012-11-01 15:15:00
10:35 AM,26.6,19.4,74,30.12,10.0,NNW,20.7,-,N/A,,Overcast,340,2012-11-01 15:35:00
10:55 AM,26.6,21.2,80,30.12,10.0,NNW,13.8,-,N/A,,Overcast,340,2012-11-01 15:55:00
11:16 AM,26.6,21.2,80,30.12,10.0,NNW,15.0,-,N/A,,Overcast,340,2012-11-01 16:16:00
11:35 AM,26.6,21.2,80,30.12,10.0,NNW,12.7,18.4,N/A,,Overcast,340,2012-11-01 16:35:00
11:55 AM,28.4,21.2,74,30.12,10.0,NNW,13.8,19.6,N/A,,Overcast,340,2012-11-01 16:55:00
12:16 PM,26.6,21.2,80,30.12,10.0,NW,15.0,-,N/A,,Overcast,320,2012-11-01 17:16:00
12:35 PM,28.4,21.2,74,30.11,10.0,NNW,15.0,-,N/A,,Overcast,340,2012-11-01 17:35:00
1:16 PM,28.4,21.2,74,30.10,10.0,North,12.7,20.7,N/A,,Overcast,350,2012-11-01 18:16:00
1:35 PM,28.4,21.2,74,30.09,10.0,NNW,15.0,-,N/A,,Overcast,330,2012-11-01 18:35:00
1:55 PM,28.4,21.2,74,30.09,10.0,NW,11.5,-,N/A,,Overcast,320,2012-11-01 18:55:00
2:15 PM,30.2,21.2,69,30.09,10.0,NNW,11.5,-,N/A,,Overcast,340,2012-11-01 19:15:00
2:35 PM,30.2,21.2,69,30.08,10.0,North,10.4,-,N/A,,Overcast,360,2012-11-01 19:35:00
2:55 PM,30.2,21.2,69,30.07,10.0,NNW,9.2,-,N/A,,Overcast,340,2012-11-01 19:55:00
3:35 PM,30.2,21.2,69,30.08,10.0,North,4.6,9.2,N/A,,Overcast,360,2012-11-01 20:35:00
3:55 PM,30.2,21.2,69,30.09,10.0,North,12.7,-,N/A,,Overcast,350,2012-11-01 20:55:00
4:15 PM,30.2,21.2,69,30.09,10.0,Calm,Calm,-,N/A,,Overcast,0,2012-11-01 21:15:00
4:35 PM,30.2,21.2,69,30.09,10.0,NNW,8.1,-,N/A,,Overcast,330,2012-11-01 21:35:00
4:55 PM,30.2,21.2,69,30.09,10.0,North,10.4,-,N/A,,Overcast,350,2012-11-01 21:55:00
5:15 PM,30.2,21.2,69,30.09,10.0,NNW,10.4,-,N/A,,Overcast,330,2012-11-01 22:15:00
5:35 PM,30.2,21.2,69,30.09,10.0,North,9.2,-,N/A,,Overcast,350,2012-11-01 22:35:00
5:55 PM,30.2,23.0,75,30.09,10.0,North,9.2,-,N/A,,Overcast,360,2012-11-01 22:55:00
6:15 PM,28.4,21.2,74,30.09,10.0,North,10.4,-,N/A,,Mostly Cloudy,360,2012-11-01 23:15:00
6:28 PM,26.6,19.4,74,30.09,10.0,North,9.2,-,N/A,,Scattered Clouds,10,2012-11-01 23:28:00
6:55 PM,26.6,19.4,74,30.09,10.0,NNE,3.5,-,N/A,,Scattered Clouds,20,2012-11-01 23:55:00
7:07 PM,26.6,21.2,80,30.10,10.0,North,3.5,-,N/A,,Mostly Cloudy,10,2012-11-02 00:07:00
7:35 PM,26.6,23.0,86,30.10,10.0,NNE,3.5,-,N/A,,Overcast,30,2012-11-02 00:35:00
7:54 PM,26.6,24.8,93,30.10,10.0,North,9.2,-,N/A,,Overcast,10,2012-11-02 00:54:00
8:15 PM,28.4,21.2,74,30.11,10.0,North,8.1,-,N/A,,Overcast,10,2012-11-02 01:15:00
8:34 PM,26.6,21.2,80,30.11,10.0,North,10.4,-,N/A,,Overcast,360,2012-11-02 01:34:00
8:44 PM,26.6,21.2,80,30.11,10.0,North,10.4,-,N/A,,Overcast,360,2012-11-02 01:44:00
9:21 PM,26.6,23.0,86,30.10,10.0,North,6.9,-,N/A,,Overcast,10,2012-11-02 02:21:00
9:40 PM,26.6,24.8,93,30.11,10.0,NNE,8.1,-,N/A,,Overcast,20,2012-11-02 02:40:00
9:55 PM,26.6,24.8,93,30.11,10.0,Calm,Calm,-,N/A,,Overcast,0,2012-11-02 02:55:00
10:10 PM,26.6,23.0,86,30.11,10.0,NE,5.8,-,N/A,,Overcast,40,2012-11-02 03:10:00
10:34 PM,26.6,23.0,86,30.11,10.0,NE,6.9,-,N/A,,Overcast,40,2012-11-02 03:34:00
10:55 PM,26.6,23.0,86,30.11,10.0,Calm,Calm,-,N/A,,Overcast,0,2012-11-02 03:55:00
11:15 PM,26.6,21.2,80,30.10,10.0,NE,10.4,-,N/A,,Overcast,40,2012-11-02 04:15:00
11:35 PM,26.6,21.2,80,30.11,10.0,NE,9.2,17.3,N/A,,Overcast,40,2012-11-02 04:35:00
11:55 PM,26.6,21.2,80,30.11,10.0,NE,8.1,-,N/A,,Overcast,50,2012-11-02 04:55:00